Weather History for KDUJ - December, 2012

Change the Weather History Date:

Monday, December 3, 2012

  Actual Average Record
Temperature  
Mean Temperature 54 °F 32 °F  
Max Temperature 56 °F 39 °F 72 °F (1982)
Min Temperature 51 °F 26 °F -6 °F (1976)
Degree Days  
Heating Degree Days 11 33  
Month to date heating degree days 50 97  
Since 1 July heating degree days 1547 1614  
Cooling Degree Days 0 0  
Month to date cooling degree days 0 0  
Year to date cooling degree days 548 362  
Growing Degree Days 3 (Base 50)    
Moisture  
Dew Point 51 °F    
Average Humidity 93    
Maximum Humidity 100    
Minimum Humidity 86    
Precipitation  
Precipitation 0.01 in 0.11 in 1.14 in (1990)
Month to date precipitation 0.36 0.32  
Sea Level Pressure  
Sea Level Pressure 30.17 in    
Wind  
Wind Speed 5 mph (SW)    
Max Wind Speed 10 mph    
Max Gust Speed 16 mph    
Visibility 5 miles    
Events Fog    
T = Trace of Precipitation, MM = Missing Value Source: NWS Daily Summary

Daily Weather History Graph

Daily Weather History Graph

Search for Another Location

Airport or City:

Trip Planner

Search our weather history database for the weather conditions in past years. The results will help you decide how hot, cold, wet, or windy it might be!

Date:

Astronomy

Dec. 03, 2012 Rise Set
Actual Time 7:24 AM EST 4:46 PM EST
Civil Twilight 6:53 AM EST 5:17 PM EST
Nautical Twilight 6:18 AM EST 5:52 PM EST
Astronomical Twilight 5:45 AM EST 6:25 PM EST
Moon 9:33 PM EST (12/3) 10:45 AM EST (12/3)
Length of Visible Light 10h 24m
Length of Day
9h 22m
Waning Gibbous, 78% of the Moon is Illuminated
Dec 3
Waning Gibbous
Dec 6
Last Quarter
Dec 13
New
Dec 20
First Quarter
Dec 28
Full

Hourly Weather History & Observations

Time (EST) Temp. Dew Point Humidity Pressure Visibility Wind Dir Wind Speed Gust Speed Precip Events Conditions
12:06 AM 51.8 °F 50.0 °F 94% 30.11 in 0.8 mi West 10.4 mph - N/A   Mist
12:56 AM 51.1 °F 50.0 °F 96% 30.13 in 0.2 mi West 8.1 mph - N/A Fog Fog
1:22 AM 51.8 °F 50.0 °F 94% 30.13 in 0.2 mi West 5.8 mph - N/A Fog Fog
1:37 AM 51.8 °F 50.0 °F 94% 30.13 in 0.2 mi West 5.8 mph - N/A Fog Fog
1:46 AM 51.8 °F 50.0 °F 94% 30.12 in 0.5 mi WNW 5.8 mph - 0.01 in Fog Fog
1:53 AM 51.8 °F 50.0 °F 94% 30.13 in 2.0 mi West 6.9 mph - 0.01 in   Overcast
1:56 AM 51.1 °F 50.0 °F 96% 30.14 in 3.0 mi West 5.8 mph - 0.01 in   Overcast
2:26 AM 51.8 °F 50.0 °F 94% 30.14 in 2.5 mi West 5.8 mph - N/A   Overcast
2:41 AM 51.8 °F 50.0 °F 94% 30.15 in 3.0 mi West 6.9 mph - N/A   Overcast
2:56 AM 51.1 °F 50.0 °F 96% 30.15 in 5.0 mi West 4.6 mph - N/A   Overcast
3:40 AM 51.8 °F 50.0 °F 94% 30.15 in 3.0 mi WSW 3.5 mph - N/A   Overcast
3:56 AM 51.1 °F 50.0 °F 96% 30.16 in 3.0 mi WSW 5.8 mph - N/A   Overcast
4:10 AM 51.8 °F 50.0 °F 94% 30.15 in 2.0 mi SW 4.6 mph - N/A   Overcast
4:26 AM 51.8 °F 50.0 °F 94% 30.15 in 3.0 mi WSW 5.8 mph - N/A   Overcast
4:56 AM 51.1 °F 50.0 °F 96% 30.17 in 3.0 mi WSW 4.6 mph - N/A   Overcast
5:29 AM 51.8 °F 50.0 °F 94% 30.17 in 1.8 mi WSW 4.6 mph - N/A   Overcast
5:46 AM 51.8 °F 48.2 °F 88% 30.17 in 2.5 mi WSW 4.6 mph - N/A   Overcast
5:56 AM 51.1 °F 50.0 °F 96% 30.19 in 2.0 mi WSW 4.6 mph - N/A   Overcast
6:05 AM 51.8 °F 50.0 °F 94% 30.18 in 1.0 mi WSW 5.8 mph - N/A   Overcast
6:56 AM 51.1 °F 50.0 °F 96% 30.21 in 1.2 mi WSW 3.5 mph - N/A   Overcast
7:20 AM 51.8 °F 50.0 °F 94% 30.20 in 0.8 mi WSW 4.6 mph - N/A   Mist
7:38 AM 51.8 °F 50.0 °F 94% 30.21 in 0.2 mi West 3.5 mph - N/A Fog Fog
7:56 AM 51.1 °F 50.0 °F 96% 30.22 in 0.2 mi Calm Calm - N/A Fog Fog
8:56 AM 51.1 °F 50.0 °F 96% 30.22 in 0.2 mi WSW 3.5 mph - N/A Fog Fog
9:56 AM 52.0 °F 51.1 °F 97% 30.22 in 1.8 mi SW 5.8 mph - N/A   Overcast
10:13 AM 51.8 °F 51.8 °F 100% 30.21 in 0.5 mi SW 5.8 mph - N/A Fog Fog
10:26 AM 51.8 °F 51.8 °F 100% 30.21 in 2.0 mi SW 8.1 mph - N/A   Overcast
10:35 AM 51.8 °F 51.8 °F 100% 30.20 in 6.0 mi WSW 3.5 mph - N/A   Overcast
10:56 AM 53.1 °F 51.1 °F 93% 30.21 in 9.0 mi SSW 4.6 mph - N/A   Overcast
11:05 AM 51.8 °F 50.0 °F 94% 30.20 in 10.0 mi SW 6.9 mph - N/A   Overcast
11:49 AM 53.6 °F 50.0 °F 88% 30.18 in 10.0 mi SW 3.5 mph - N/A   Overcast
11:56 AM 54.0 °F 51.1 °F 90% 30.19 in 9.0 mi SSW 5.8 mph - N/A   Overcast
12:26 PM 53.6 °F 51.8 °F 94% 30.18 in 9.0 mi SW 5.8 mph - N/A   Overcast
12:46 PM 55.4 °F 51.8 °F 88% 30.17 in 9.0 mi SW 5.8 mph - N/A   Overcast
12:56 PM 55.0 °F 51.1 °F 86% 30.17 in 9.0 mi SW 4.6 mph - N/A   Overcast
1:26 PM 55.4 °F 51.8 °F 88% 30.17 in 8.0 mi Calm Calm - N/A   Overcast
1:56 PM 55.9 °F 51.1 °F 84% 30.17 in 8.0 mi SSW 3.5 mph - N/A   Overcast
2:07 PM 55.4 °F 51.8 °F 88% 30.17 in 8.0 mi SW 4.6 mph - N/A   Overcast
2:56 PM 55.9 °F 51.1 °F 84% 30.17 in 8.0 mi South 5.8 mph - N/A   Overcast
3:53 PM 55.4 °F 51.8 °F 88% 30.16 in 8.0 mi SSW 4.6 mph - N/A   Overcast
3:56 PM 55.9 °F 51.1 °F 84% 30.17 in 8.0 mi Calm Calm - N/A   Overcast
4:15 PM 55.4 °F 51.8 °F 88% 30.15 in 8.0 mi SSE 3.5 mph - N/A   Overcast
4:56 PM 55.0 °F 52.0 °F 89% 30.17 in 8.0 mi SSW 3.5 mph - N/A   Overcast
5:56 PM 55.0 °F 52.0 °F 89% 30.17 in 7.0 mi South 3.5 mph - N/A   Overcast
6:56 PM 55.0 °F 53.1 °F 93% 30.17 in 6.0 mi SSE 5.8 mph - N/A   Overcast
7:14 PM 55.4 °F 53.6 °F 94% 30.17 in 5.0 mi South 5.8 mph - N/A   Overcast
7:45 PM 55.4 °F 53.6 °F 94% 30.17 in 8.0 mi South 5.8 mph - N/A   Overcast
7:56 PM 55.0 °F 53.1 °F 93% 30.17 in 8.0 mi South 3.5 mph - N/A   Overcast
8:35 PM 55.4 °F 53.6 °F 94% 30.17 in 10.0 mi SSW 4.6 mph - N/A   Overcast
8:56 PM 55.9 °F 52.0 °F 87% 30.17 in 10.0 mi SSW 5.8 mph - N/A   Overcast
9:07 PM 55.4 °F 53.6 °F 94% 30.17 in 10.0 mi SSW 5.8 mph - N/A   Overcast
9:24 PM 55.4 °F 53.6 °F 94% 30.17 in 10.0 mi SW 6.9 mph - N/A   Overcast
9:56 PM 55.9 °F 53.1 °F 90% 30.17 in 10.0 mi SSW 6.9 mph - N/A   Overcast
10:56 PM 55.9 °F 53.1 °F 90% 30.16 in 9.0 mi SSW 5.8 mph - N/A   Mostly Cloudy
11:05 PM 55.4 °F 53.6 °F 94% 30.16 in 9.0 mi SSW 5.8 mph - N/A   Mostly Cloudy
11:56 PM 55.0 °F 53.1 °F 93% 30.16 in 9.0 mi SSW 4.6 mph - N/A   Mostly Cloudy